PKC108 UHMM-UHPL

Flight info

Callsign PKC108
Flight time 1h 8m
Altitude 23000
Route RIMAL5D RIMAL DCT URABI DCT OBASO DCT PELEB
Aircraft YK40/M-SDFIRWY/H

Departure

Time 2026-04-30 13:15
Airport Sokol Airport (UHMM)

Arrival

Time 2026-04-30 14:24
Airport Palana Airport (UHPL)
Time Latitude Longitude Altitude Speed Heading
2026-04-30 12:59 59.91365 150.72652 560 ft 0 kts
2026-04-30 13:06 59.91366 150.72652 553 ft 0 kts
2026-04-30 13:10 59.91367 150.72652 560 ft 1 kts 354°
2026-04-30 13:10 59.91335 150.72633 558 ft 13 kts 162°
2026-04-30 13:11 59.91230 150.72684 547 ft 18 kts 185°
2026-04-30 13:11 59.91101 150.72653 536 ft 17 kts 216°
2026-04-30 13:11 59.91086 150.72453 536 ft 13 kts 274°
2026-04-30 13:11 59.91092 150.72296 537 ft 9 kts 274°
2026-04-30 13:12 59.91096 150.72171 537 ft 11 kts 274°
2026-04-30 13:12 59.91103 150.71936 538 ft 20 kts 273°
2026-04-30 13:12 59.91111 150.71657 537 ft 19 kts 273°
2026-04-30 13:13 59.91132 150.71258 535 ft 9 kts 294°
2026-04-30 13:13 59.91117 150.71251 535 ft 3 kts 90°
2026-04-30 13:13 59.91116 150.71256 535 ft 0 kts 92°
2026-04-30 13:14 59.91116 150.71266 535 ft 6 kts 92°
2026-04-30 13:14 59.91123 150.71466 536 ft 10 kts 95°
2026-04-30 13:14 59.91092 150.72415 537 ft 89 kts 94°
2026-04-30 13:15 59.91046 150.73915 641 ft 118 kts 92°
2026-04-30 13:15 59.90943 150.77425 1199 ft 150 kts 92°
2026-04-30 13:15 59.90880 150.79646 1565 ft 174 kts 92°
2026-04-30 13:16 59.90796 150.82199 2000 ft 193 kts 94°
2026-04-30 13:16 59.90710 150.84949 2462 ft 207 kts 92°
2026-04-30 13:16 59.90644 150.87773 3269 ft 203 kts 91°
2026-04-30 13:17 59.90487 150.92996 4922 ft 193 kts 93°
2026-04-30 13:17 59.90393 150.95818 5241 ft 213 kts 92°
2026-04-30 13:17 59.90282 151.01741 6544 ft 215 kts 92°
2026-04-30 13:18 59.90178 151.04674 7277 ft 212 kts 92°
2026-04-30 13:18 59.90020 151.10465 8590 ft 212 kts 91°
2026-04-30 13:18 59.89930 151.13402 9204 ft 214 kts 91°
2026-04-30 13:19 59.89845 151.16377 9720 ft 220 kts 92°
2026-04-30 13:19 59.89730 151.19402 10271 ft 223 kts 92°
2026-04-30 13:19 59.89645 151.22447 10805 ft 219 kts 91°
2026-04-30 13:19 59.89550 151.25435 11278 ft 211 kts 91°
2026-04-30 13:20 59.89473 151.28265 11727 ft 204 kts 91°
2026-04-30 13:20 59.89389 151.31052 12126 ft 200 kts 91°
2026-04-30 13:20 59.89302 151.33821 12370 ft 204 kts 91°
2026-04-30 13:20 59.89212 151.36636 12619 ft 207 kts 91°
2026-04-30 13:21 59.89259 151.39516 12887 ft 206 kts 77°
2026-04-30 13:21 59.89628 151.42242 13068 ft 209 kts 69°
2026-04-30 13:21 59.90099 151.45032 13265 ft 214 kts 69°
2026-04-30 13:22 59.91014 151.50723 13718 ft 218 kts 69°
2026-04-30 13:22 59.91460 151.53564 14038 ft 216 kts 69°
2026-04-30 13:22 59.92341 151.59238 14601 ft 213 kts 69°
2026-04-30 13:23 59.92770 151.62021 14855 ft 212 kts 69°
2026-04-30 13:23 59.93626 151.67630 15364 ft 213 kts 70°
2026-04-30 13:24 59.94534 151.73202 15848 ft 211 kts 65°
2026-04-30 13:24 59.95556 151.78734 16279 ft 214 kts 66°
2026-04-30 13:25 59.96553 151.84309 16715 ft 215 kts 66°
2026-04-30 13:25 59.97548 151.89938 17146 ft 215 kts 66°
2026-04-30 13:26 59.99022 151.98383 17766 ft 216 kts 66°
2026-04-30 13:26 59.99994 152.04045 18155 ft 217 kts 66°
2026-04-30 13:27 60.00961 152.09769 18538 ft 218 kts 66°
2026-04-30 13:28 60.02404 152.18361 19102 ft 219 kts 66°
2026-04-30 13:28 60.03361 152.24139 19469 ft 219 kts 66°
2026-04-30 13:28 60.03841 152.27051 19660 ft 220 kts 66°
2026-04-30 13:29 60.03928 152.33275 19905 ft 236 kts 93°
2026-04-30 13:29 60.03426 152.39825 20166 ft 243 kts 92°
2026-04-30 13:30 60.02831 152.50038 20676 ft 250 kts 92°
2026-04-30 13:31 60.02385 152.56970 21073 ft 253 kts 92°
2026-04-30 13:31 60.01702 152.67454 21681 ft 255 kts 93°
2026-04-30 13:32 60.01246 152.74499 22073 ft 256 kts 93°
2026-04-30 13:32 60.00790 152.81541 22451 ft 257 kts 93°
2026-04-30 13:33 60.00327 152.88649 22822 ft 258 kts 93°
2026-04-30 13:33 59.99858 152.95819 22958 ft 269 kts 93°
2026-04-30 13:34 59.99618 152.99550 22931 ft 277 kts 93°
2026-04-30 13:34 59.98880 153.11276 22917 ft 293 kts 93°
2026-04-30 13:35 59.98629 153.15338 22917 ft 297 kts 93°
2026-04-30 13:35 59.98125 153.23598 22918 ft 303 kts 93°
2026-04-30 13:36 59.97615 153.32021 22910 ft 308 kts 93°
2026-04-30 13:36 59.97362 153.36232 22892 ft 310 kts 93°
2026-04-30 13:36 59.96839 153.44791 22877 ft 313 kts 94°
2026-04-30 13:37 59.96524 153.49072 22857 ft 315 kts 94°
2026-04-30 13:37 59.95908 153.57712 22885 ft 315 kts 94°
2026-04-30 13:38 59.95300 153.66350 22918 ft 316 kts 95°
2026-04-30 13:38 59.94994 153.70686 22940 ft 316 kts 95°
2026-04-30 13:38 59.94383 153.79366 22980 ft 316 kts 95°
2026-04-30 13:39 59.93773 153.88025 22984 ft 317 kts 95°
2026-04-30 13:39 59.93169 153.96699 23003 ft 317 kts 95°
2026-04-30 13:40 59.92865 154.01062 23010 ft 317 kts 95°
2026-04-30 13:40 59.92564 154.05376 22993 ft 318 kts 95°
2026-04-30 13:40 59.92258 154.09749 22983 ft 318 kts 95°
2026-04-30 13:40 59.91952 154.14119 22984 ft 318 kts 95°
2026-04-30 13:41 59.91647 154.18434 22970 ft 318 kts 95°
2026-04-30 13:41 59.91335 154.22812 22968 ft 318 kts 95°
2026-04-30 13:41 59.91025 154.27121 22944 ft 318 kts 95°
2026-04-30 13:41 59.90711 154.31467 22970 ft 317 kts 95°
2026-04-30 13:42 59.90399 154.35783 22988 ft 317 kts 95°
2026-04-30 13:42 59.90084 154.40150 23003 ft 316 kts 95°
2026-04-30 13:42 59.89466 154.48743 23003 ft 316 kts 95°
2026-04-30 13:43 59.89153 154.53073 23038 ft 316 kts 95°
2026-04-30 13:43 59.88840 154.57399 23021 ft 316 kts 95°
2026-04-30 13:43 59.88525 154.61725 23014 ft 316 kts 95°
2026-04-30 13:43 59.88209 154.66037 23015 ft 316 kts 95°
2026-04-30 13:44 59.87890 154.70366 23009 ft 316 kts 95°
2026-04-30 13:44 59.87573 154.74660 23019 ft 316 kts 95°
2026-04-30 13:44 59.87240 154.78957 23025 ft 316 kts 96°
2026-04-30 13:44 59.86876 154.83258 23015 ft 316 kts 96°
2026-04-30 13:45 59.86168 154.91870 23004 ft 316 kts 96°
2026-04-30 13:45 59.85822 154.96153 23002 ft 315 kts 96°
2026-04-30 13:45 59.85471 155.00484 22999 ft 315 kts 96°
2026-04-30 13:46 59.85123 155.04759 23001 ft 315 kts 96°
2026-04-30 13:46 59.84772 155.09047 23000 ft 315 kts 96°
2026-04-30 13:46 59.84421 155.13316 23005 ft 315 kts 96°
2026-04-30 13:46 59.84066 155.17631 23001 ft 315 kts 96°
2026-04-30 13:47 59.83715 155.21864 22989 ft 315 kts 96°
2026-04-30 13:47 59.83355 155.26192 22989 ft 315 kts 96°
2026-04-30 13:47 59.82995 155.30486 22981 ft 315 kts 96°
2026-04-30 13:47 59.82636 155.34746 22983 ft 315 kts 96°
2026-04-30 13:48 59.82275 155.39011 22989 ft 314 kts 96°
2026-04-30 13:48 59.81915 155.43265 22981 ft 314 kts 96°
2026-04-30 13:48 59.81553 155.47517 22967 ft 314 kts 96°
2026-04-30 13:48 59.81187 155.51807 22984 ft 314 kts 96°
2026-04-30 13:49 59.80822 155.56085 22987 ft 314 kts 96°
2026-04-30 13:49 59.80461 155.60336 22967 ft 314 kts 96°
2026-04-30 13:49 59.80098 155.64603 22974 ft 314 kts 96°
2026-04-30 13:49 59.79735 155.68866 22971 ft 313 kts 97°
2026-04-30 13:50 59.79329 155.73068 22971 ft 313 kts 97°
2026-04-30 13:50 59.78517 155.81558 22966 ft 313 kts 97°
2026-04-30 13:50 59.78119 155.85771 22965 ft 313 kts 97°
2026-04-30 13:51 59.77721 155.90004 22968 ft 313 kts 97°
2026-04-30 13:51 59.77318 155.94260 22973 ft 313 kts 97°
2026-04-30 13:51 59.76920 155.98457 22982 ft 312 kts 97°
2026-04-30 13:51 59.76517 156.02698 22745 ft 316 kts 97°
2026-04-30 13:52 59.76117 156.06924 22415 ft 312 kts 97°
2026-04-30 13:52 59.75723 156.11095 22079 ft 308 kts 97°
2026-04-30 13:52 59.75332 156.15277 21736 ft 305 kts 97°
2026-04-30 13:52 59.74952 156.19367 21399 ft 304 kts 97°
2026-04-30 13:53 59.74569 156.23482 21063 ft 301 kts 97°
2026-04-30 13:53 59.74198 156.27483 20725 ft 294 kts 97°
2026-04-30 13:53 59.73833 156.31407 20374 ft 288 kts 97°
2026-04-30 13:53 59.73478 156.35249 20015 ft 283 kts 97°
2026-04-30 13:54 59.73132 156.39044 19647 ft 278 kts 97°
2026-04-30 13:54 59.72794 156.42769 19276 ft 275 kts 97°
2026-04-30 13:54 59.72460 156.46480 18907 ft 272 kts 97°
2026-04-30 13:54 59.72131 156.50153 18534 ft 270 kts 97°
2026-04-30 13:55 59.71809 156.53738 18169 ft 268 kts 97°
2026-04-30 13:55 59.71480 156.57385 17792 ft 266 kts 97°
2026-04-30 13:55 59.71158 156.60947 17424 ft 264 kts 97°
2026-04-30 13:55 59.70837 156.64473 17057 ft 262 kts 97°
2026-04-30 13:56 59.70470 156.68025 16691 ft 261 kts 99°
2026-04-30 13:56 59.70112 156.71504 16325 ft 259 kts 99°
2026-04-30 13:56 59.69758 156.74954 15965 ft 258 kts 99°
2026-04-30 13:56 59.69404 156.78420 15603 ft 257 kts 99°
2026-04-30 13:57 59.69050 156.81885 15241 ft 255 kts 99°
2026-04-30 13:57 59.68702 156.85281 14887 ft 254 kts 99°
2026-04-30 13:57 59.68338 156.88699 14531 ft 253 kts 99°
2026-04-30 13:57 59.67960 156.92090 14274 ft 252 kts 99°
2026-04-30 13:58 59.67597 156.95424 14365 ft 248 kts 99°
2026-04-30 13:58 59.66884 157.02084 14455 ft 248 kts 99°
2026-04-30 13:58 59.66529 157.05400 14470 ft 249 kts 99°
2026-04-30 13:59 59.66167 157.08763 14472 ft 250 kts 99°
2026-04-30 13:59 59.65807 157.12097 14477 ft 251 kts 99°
2026-04-30 13:59 59.65438 157.15486 14474 ft 252 kts 99°
2026-04-30 13:59 59.65068 157.18866 14477 ft 253 kts 99°
2026-04-30 14:00 59.64688 157.22325 14477 ft 259 kts 99°
2026-04-30 14:00 59.63910 157.29417 14479 ft 270 kts 99°
2026-04-30 14:00 59.63515 157.33034 14476 ft 274 kts 99°
2026-04-30 14:01 59.63110 157.36748 14409 ft 279 kts 99°
2026-04-30 14:01 59.62703 157.40495 14190 ft 284 kts 99°
2026-04-30 14:01 59.62282 157.44365 13978 ft 287 kts 99°
2026-04-30 14:01 59.61859 157.48187 13780 ft 288 kts 99°
2026-04-30 14:02 59.61429 157.51991 13571 ft 282 kts 99°
2026-04-30 14:02 59.61010 157.55748 13360 ft 281 kts 99°
2026-04-30 14:02 59.60590 157.59534 13156 ft 284 kts 99°
2026-04-30 14:02 59.60154 157.63333 12963 ft 285 kts 101°
2026-04-30 14:03 59.59414 157.66965 12799 ft 286 kts 111°
2026-04-30 14:03 59.58603 157.70485 12591 ft 279 kts 111°
2026-04-30 14:03 59.57827 157.73946 12374 ft 274 kts 111°
2026-04-30 14:03 59.57066 157.77364 12148 ft 270 kts 111°
2026-04-30 14:04 59.56319 157.80713 11917 ft 267 kts 111°
2026-04-30 14:04 59.55580 157.84023 11685 ft 266 kts 111°
2026-04-30 14:04 59.54838 157.87349 11448 ft 264 kts 111°
2026-04-30 14:04 59.54107 157.90622 11213 ft 263 kts 111°
2026-04-30 14:05 59.53364 157.93942 10975 ft 262 kts 111°
2026-04-30 14:05 59.52640 157.97180 10743 ft 261 kts 111°
2026-04-30 14:05 59.51908 158.00461 10509 ft 260 kts 111°
2026-04-30 14:05 59.51189 158.03680 10281 ft 259 kts 111°
2026-04-30 14:06 59.50462 158.06928 10050 ft 258 kts 111°
2026-04-30 14:06 59.49019 158.13322 9591 ft 257 kts 111°
2026-04-30 14:07 59.47572 158.19731 9131 ft 255 kts 111°
2026-04-30 14:07 59.46856 158.22917 8904 ft 255 kts 111°
2026-04-30 14:07 59.46144 158.26077 8683 ft 254 kts 111°
2026-04-30 14:08 59.44726 158.32373 8236 ft 252 kts 110°
2026-04-30 14:08 59.44020 158.35518 8013 ft 252 kts 111°
2026-04-30 14:08 59.42616 158.41782 7569 ft 250 kts 110°
2026-04-30 14:09 59.41913 158.44913 7345 ft 250 kts 110°
2026-04-30 14:09 59.41219 158.48010 7126 ft 249 kts 110°
2026-04-30 14:09 59.39829 158.54227 6689 ft 249 kts 110°
2026-04-30 14:10 59.39138 158.57318 6476 ft 248 kts 110°
2026-04-30 14:10 59.38452 158.60375 6263 ft 247 kts 110°
2026-04-30 14:10 59.37762 158.63458 6049 ft 246 kts 110°
2026-04-30 14:10 59.37078 158.66513 5837 ft 245 kts 111°
2026-04-30 14:11 59.36400 158.69553 5627 ft 244 kts 111°
2026-04-30 14:11 59.35718 158.72624 5415 ft 243 kts 111°
2026-04-30 14:11 59.35047 158.75653 5204 ft 242 kts 111°
2026-04-30 14:11 59.34385 158.78653 4995 ft 241 kts 111°
2026-04-30 14:12 59.33718 158.81677 4787 ft 241 kts 111°
2026-04-30 14:12 59.33054 158.84691 4707 ft 242 kts 111°
2026-04-30 14:12 59.32383 158.87727 4758 ft 243 kts 111°
2026-04-30 14:12 59.31721 158.90727 4793 ft 244 kts 111°
2026-04-30 14:13 59.30979 158.93718 4808 ft 246 kts 114°
2026-04-30 14:13 59.30224 158.96738 4806 ft 247 kts 114°
2026-04-30 14:13 59.29478 158.99777 4798 ft 248 kts 114°
2026-04-30 14:13 59.28729 159.02847 4798 ft 249 kts 114°
2026-04-30 14:14 59.27986 159.05888 4798 ft 246 kts 114°
2026-04-30 14:14 59.27271 159.08801 4788 ft 230 kts 114°
2026-04-30 14:14 59.26588 159.11571 4798 ft 228 kts 113°
2026-04-30 14:14 59.25889 159.14392 4803 ft 229 kts 113°
2026-04-30 14:15 59.25691 159.15192 4803 ft 230 kts 113°
2026-04-30 14:15 59.24999 159.17978 4808 ft 230 kts 113°
2026-04-30 14:15 59.24293 159.20813 4814 ft 231 kts 113°
2026-04-30 14:16 59.23591 159.23628 4743 ft 235 kts 113°
2026-04-30 14:16 59.22876 159.26543 4536 ft 242 kts 113°
2026-04-30 14:16 59.22156 159.29550 4343 ft 242 kts 113°
2026-04-30 14:16 59.21455 159.32423 4126 ft 232 kts 113°
2026-04-30 14:17 59.20763 159.35245 3906 ft 233 kts 113°
2026-04-30 14:17 59.20064 159.38109 3698 ft 236 kts 113°
2026-04-30 14:17 59.19371 159.40947 3492 ft 230 kts 113°
2026-04-30 14:17 59.18676 159.43790 3290 ft 232 kts 113°
2026-04-30 14:18 59.17998 159.46571 3231 ft 230 kts 113°
2026-04-30 14:18 59.17371 159.49455 3093 ft 231 kts 110°
2026-04-30 14:18 59.16158 159.55064 2792 ft 219 kts 111°
2026-04-30 14:19 59.14971 159.60228 2429 ft 194 kts 111°
2026-04-30 14:19 59.14399 159.62575 2213 ft 188 kts 112°
2026-04-30 14:19 59.13869 159.64757 1975 ft 169 kts 111°
2026-04-30 14:20 59.13417 159.66673 2037 ft 142 kts 112°
2026-04-30 14:20 59.12983 159.68326 1923 ft 134 kts 116°
2026-04-30 14:20 59.12268 159.71693 1242 ft 154 kts 109°
2026-04-30 14:21 59.11758 159.73660 645 ft 157 kts 114°
2026-04-30 14:21 59.11350 159.75424 620 ft 134 kts 112°
2026-04-30 14:21 59.10564 159.78426 682 ft 108 kts 115°
2026-04-30 14:22 59.10202 159.79724 593 ft 115 kts 118°
2026-04-30 14:22 59.09347 159.82254 938 ft 113 kts 125°
2026-04-30 14:22 59.09058 159.83629 764 ft 107 kts 106°
2026-04-30 14:23 59.08639 159.86289 171 ft 99 kts 106°
2026-04-30 14:23 59.08258 159.88798 22 ft 81 kts 107°
2026-04-30 14:24 59.08086 159.89929 51 ft 13 kts 109°
2026-04-30 14:24 59.08083 159.90010 52 ft 5 kts 279°
2026-04-30 14:25 59.08098 159.89862 50 ft 7 kts 287°
2026-04-30 14:25 59.08139 159.89603 46 ft 11 kts 288°
2026-04-30 14:26 59.08187 159.89290 36 ft 9 kts 285°
2026-04-30 14:26 59.08192 159.89253 35 ft 3 kts 285°
2026-04-30 14:26 59.08208 159.89226 35 ft 0 kts 20°
2026-04-30 14:27 59.08209 159.89227 35 ft 1 kts 20°
2026-04-30 14:27 59.08246 159.89256 36 ft 6 kts 22°
2026-04-30 14:28 59.08290 159.89210 36 ft 4 kts 287°
2026-04-30 14:28 59.08304 159.89194 36 ft 0 kts 35°
2026-04-30 14:28 59.08305 159.89195 36 ft 1 kts 47°
2026-04-30 14:28 59.08306 159.89212 36 ft 0 kts 103°
2026-04-30 14:29 59.08302 159.89239 37 ft 0 kts 106°